Regional Weather Roundup
Issued by NWS

Home | Current Version | Previous Version | Text Only | Print | Product List | Glossary On
Versions: 1 2 3 4 5 6 7 8 9 10 11 12 13 14 15 16 17 18 19 20 21 22 23 24 25 26 27 28 29 30 31 32 33 34 35 36 37 38 39 40 41 42 43 44 45 46 47 48 49 50
000
ASUS43 KLSX 141659
RWRMO

WEATHER SUMMARY FOR MISSOURI
NATIONAL WEATHER SERVICE SPRINGFIELD MO
1200 PM CDT SUN SEP 14 2014

NOTE: "FAIR" INDICATES FEW OR NO CLOUDS BELOW 12,000 FEET WITH NO
       SIGNIFICANT WEATHER AND/OR OBSTRUCTIONS TO VISIBILITY.
       CURRENT SKY AND/OR WEATHER CONDITIONS ARE NOT AVAILABLE FOR
       CHILLICOTHE AND FARMINGTON.

MOZ001>031-035>038-043-044-053-054-141800-
...NORTHERN AND WESTERN MISSOURI...

CITY           SKY/WX    TMP DP  RH WIND       PRES   REMARKS
KANSAS CTY INT MOSUNNY   67  49  52 VRB6      30.23F
KANSAS C DTWN  SUNNY     69  48  47 S5        30.22F
LEE`S SUMMIT   PTSUNNY   67  50  54 VRB3      30.24F
ST JOSEPH      SUNNY     67  49  52 SE6       30.22F
KIRKSVILLE     SUNNY     64  46  52 VRB5      30.28F

$$
MOZ066>068-077>081-088>096-101>105-141800-
...SOUTHWEST MISSOURI...

CITY           SKY/WX    TMP DP  RH WIND       PRES   REMARKS
SPRINGFIELD    CLOUDY    67  49  52 S7        30.27F
JOPLIN         CLOUDY    65  55  70 S8        30.27F

$$
MOZ032>034-039>042-045>050-055>058-069>072-141800-
...CENTRAL MISSOURI...

CITY           SKY/WX    TMP DP  RH WIND       PRES   REMARKS
COLUMBIA       MOSUNNY   65  50  58 S5        30.28F
JEFFERSON CITY CLOUDY    66  46  48 VRB6      30.28F
ROLLA          CLOUDY    62  47  57 VRB3      30.28F
SEDALIA        CLOUDY    66  54  65 VRB5      30.26F
OSAGE BEACH    CLOUDY    63  46  55 S5        30.29S

$$
MOZ051-052-059>065-141800-
...EAST CENTRAL MISSOURI...

CITY           SKY/WX    TMP DP  RH WIND       PRES   REMARKS
ST LOUIS INTL  MOSUNNY   66  43  43 CALM      30.30F
SPIRIT OF STL  PTSUNNY   64  43  46 CALM      30.29F
ST CHARLES     MOSUNNY   65  45  48 VRB3      30.29F

$$
MOZ072>076-082>087-097>100-106>115-141800-
...SOUTH CENTRAL AND SOUTHEAST MISSOURI...

CITY           SKY/WX    TMP DP  RH WIND       PRES   REMARKS
CAPE GIRARDEAU SUNNY     67  48  50 NE7       30.29F
FARMINGTON     CLOUDY    64  45  48 NW6       30.32S
POPLAR BLUFF   SUNNY     68  45  43 CALM      30.28F
WEST PLAINS    SUNNY     66  44  45 VRB3      30.30F

$$



USA.gov is the U.S. government's official web portal to all federal, state and local government web resources and services.